Stations météo

réclame
Mon MeteoGroup
Roth, Allemagne (10765): Température de l'air & dewpoint: 19.03.2019 11:00:00 - 25.03.2019 11:00:00 (CET)Roth, Allemagne (10765): Température de l'air 5cm & Température de l'air -5cm: 19.03.2019 11:00:00 - 25.03.2019 11:00:00 (CET)Roth, Allemagne (10765): Température de l'air -20cm & Température de l'air -100cm: 19.03.2019 11:00:00 - 25.03.2019 11:00:00 (CET)Roth, Allemagne (10765): Vitesse du vent & gusts: 19.03.2019 11:00:00 - 25.03.2019 11:00:00 (CET)Roth, Allemagne (10765): Direction du vent: 19.03.2019 11:00:00 - 25.03.2019 11:00:00 (CET)Roth, Allemagne (10765): reduced air pressure: 19.03.2019 11:00:00 - 25.03.2019 11:00:00 (CET)Roth, Allemagne (10765): visibility: 19.03.2019 11:00:00 - 25.03.2019 11:00:00 (CET)Roth, Allemagne (10765): Quantités de précipitations: 19.03.2019 11:00:00 - 25.03.2019 11:00:00 (CET)
Date & Time tt [°C] td [°C] tt 5cm [°C] tt -5cm [°C] tt -20cm [°C] tt -100cm [°C] ff [km/h] ff [knt] fx [km/h] fx [knt] dd ppp [hPa] vv [km] rr [mm]
25.03.2019 11:00:00 5,7 0,5 7,2 7,9 7,6 7,1 25 14 49 27 W 1020,4 21 0,2
25.03.2019 10:00:00 6,5 -1,6 8,2 8,5 7,3 7,1 30 16 47 26 W 1020,0 20 0,0
25.03.2019 09:00:00 5,7 -1,7 8,7 6,9 7,3 7,0 27 14 42 23 W 1020,2 16 0,0
25.03.2019 08:00:00 3,8 -2,0 5,2 5,7 7,5 7,0 19 10 31 17 W 1020,9 18 0,0
25.03.2019 07:00:00 2,9 -1,9 2,1 5,4 7,8 7,0 19 11 31 17 W 1021,1 16 0,0
25.03.2019 06:00:00 3,3 -0,3 1,4 6,0 8,1 7,0 12 6 17 9 W 1021,0 10 0,0
25.03.2019 05:00:00 4,2 0,1 2,1 6,5 8,3 7,0 14 8 23 12 W 1020,7 11 0,0
25.03.2019 04:00:00 5,4 1,6 4,0 7,1 8,5 7,0 16 9 27 15 WNW 1020,6 9 0,0
25.03.2019 03:00:00 6,1 3,0 4,3 7,6 8,7 7,0 10 6 15 8 W 1020,6 7 0,0
25.03.2019 02:00:00 7,1 3,3 6,5 8,0 8,9 6,9 10 5 13 7 WNW 1021,0 8 0,0
25.03.2019 01:00:00 7,3 4,0 6,6 8,2 9,1 6,9 10 5 13 7 W 1021,6 5 0,0
25.03.2019 00:00:00 6,8 4,3 6,3 8,3 9,3 6,9 8 5 11 6 W 1022,2 3,9 0,0
24.03.2019 23:00:00 5,9 4,2 4,2 8,4 9,6 6,9 3 2 10 6 SW 1022,2 2,8 0,0
24.03.2019 22:00:00 6,3 4,6 4,2 8,8 9,9 6,9 9 5 11 6 W 1022,7 3,2 0,0
24.03.2019 21:00:00 7,6 4,8 5,4 9,5 10,2 6,9 8 5 12 7 W 1022,7 3,8 0,0
24.03.2019 20:00:00 8,5 5,0 6,7 10,3 10,5 6,9 9 5 15 8 WNW 1022,6 3,9 0,0
24.03.2019 19:00:00 9,5 5,0 7,0 11,3 10,7 6,9 7 4 30 16 WNW 1022,2 4,3 0,0
24.03.2019 18:00:00 11,4 5,5 10,8 12,4 10,7 6,9 18 10 33 18 NW 1021,6 4,6 0,0
24.03.2019 17:00:00 13,1 6,2 12,8 13,3 10,6 6,9 20 11 31 17 NW 1020,9 4,6 0,0
24.03.2019 16:00:00 13,9 6,1 15,0 14,0 10,2 6,9 16 9 27 14 NNW 1020,6 4,8 0,0
24.03.2019 15:00:00 15,1 6,4 17,7 14,3 9,6 6,8 10 6 23 13 N 1020,5 4,6 0,0
24.03.2019 14:00:00 15,0 5,8 18,7 14,3 8,9 6,8 13 7 24 13 NNW 1021,1 6 0,0
24.03.2019 13:00:00 14,0 5,6 18,3 13,5 8,1 6,8 10 5 18 10 NNW 1022,0 4,9 0,0
24.03.2019 12:00:00 12,6 5,1 16,4 12,0 7,4 6,8 5 3 9 5 SW 1023,0 4,6 0,0
24.03.2019 11:00:00 10,4 4,8 13,7 9,9 6,9 6,8 4 2 9 5 SSW 1024,2 3,7 0,0
24.03.2019 10:00:00 7,1 4,2 11,4 7,8 6,5 6,8 3 1 7 4 NNW 1025,5 2,6 0,0
24.03.2019 09:00:00 4,3 2,9 6,1 5,9 6,5 6,7 3 1 5 3 W 1026,3 1,9 0,0
24.03.2019 08:00:00 1,6 0,5 1,8 4,6 6,6 6,7 3 1 4 2 SW 1026,7 2,6 0,0
24.03.2019 07:00:00 0,2 -0,3 -1,1 4,3 6,9 6,7 3 1 4 2 S 1027,0 2,7 0,0
24.03.2019 06:00:00 0,0 -0,8 -1,9 4,6 7,2 6,7 2 1 4 2 SSW 1027,1 3,2 0,0
24.03.2019 05:00:00 0,8 0,1 -1,5 5,0 7,6 6,7 3 2 4 2 SSW 1027,3 3,2 0,0
24.03.2019 04:00:00 0,9 0,0 -1,0 5,4 7,9 6,7 2 1 4 2 S 1027,5 3,9 0,0
24.03.2019 03:00:00 1,9 1,0 -0,3 5,9 8,3 6,6 3 2 4 2 S 1027,4 3,7 0,0
24.03.2019 02:00:00 2,8 1,5 0,5 6,4 8,6 6,6 2 1 4 2 S 1027,6 5 0,0
24.03.2019 01:00:00 2,6 1,2 0,2 7,0 9,0 6,6 0 0 4 2 N 1027,9 6 0,0
24.03.2019 00:00:00 3,9 1,3 1,2 7,6 9,4 6,6 2 1 5 3 WSW 1028,1 8 0,0
23.03.2019 23:00:00 5,3 2,2 3,0 8,3 9,8 6,6 6 3 13 7 NNW 1027,8 10 0,0
23.03.2019 22:00:00 6,2 2,2 2,8 9,0 10,2 6,6 3 1 5 3 S 1027,7 10 0,0
23.03.2019 21:00:00 8,1 2,8 4,0 9,9 10,5 6,6 4 2 7 4 SSW 1027,5 13 0,0
23.03.2019 20:00:00 10,9 3,0 6,8 10,9 10,8 6,6 5 3 6 3 SW 1026,8 12 0,0
23.03.2019 19:00:00 12,9 2,0 8,2 12,1 11,0 6,6 5 3 12 7 NNW 1026,0 10 0,0
23.03.2019 18:00:00 15,5 2,2 13,1 13,3 11,0 6,6 9 5 17 9 NNW 1025,3 10 0,0
23.03.2019 17:00:00 17,3 1,3 16,1 14,4 10,7 6,6 8 5 19 11 NW 1025,0 9 0,0
23.03.2019 16:00:00 17,6 0,4 19,3 15,0 10,2 6,6 10 6 23 13 NW 1024,9 10 0,0
23.03.2019 15:00:00 17,6 -0,7 20,6 15,1 9,5 6,5 10 5 32 18 W 1025,3 13 0,0
23.03.2019 14:00:00 17,7 1,7 20,5 14,8 8,7 6,5 6 3 20 11 N 1025,8 12 0,0
23.03.2019 13:00:00 17,3 0,9 20,9 13,8 7,8 6,5 8 4 18 10 WSW 1026,4 13 0,0
23.03.2019 12:00:00 15,9 2,5 18,8 12,4 7,0 6,5 9 5 15 8 SSW 1026,8 10 0,0
23.03.2019 11:00:00 14,3 2,4 18,7 10,5 6,3 6,5 7 4 15 8 W 1027,5 11 0,0
23.03.2019 10:00:00 11,4 2,0 14,4 8,1 5,9 6,5 5 3 9 5 S 1028,0 10 0,0
23.03.2019 09:00:00 9,1 2,3 10,2 5,9 5,7 6,5 6 3 12 7 SSW 1028,5 12 0,0
23.03.2019 08:00:00 4,7 1,0 3,7 4,1 5,8 6,4 7 4 9 5 S 1029,2 9 0,0
23.03.2019 07:00:00 1,2 0,4 -0,7 3,5 6,1 6,4 6 3 8 4 SSW 1029,7 6 0,0
23.03.2019 06:00:00 1,0 0,1 -1,6 3,8 6,4 6,4 7 4 9 5 S 1029,3 7 0,0
23.03.2019 05:00:00 0,8 0,0 -1,5 4,2 6,7 6,4 4 2 5 3 SE 1029,3 7 0,0
23.03.2019 04:00:00 1,6 0,8 -0,9 4,6 7,0 6,4 3 1 6 3 S 1029,4 9 0,0
23.03.2019 03:00:00 1,6 0,7 -0,8 5,1 7,4 6,4 5 3 6 3 SSW 1029,3 13 0,0
23.03.2019 02:00:00 1,9 0,8 -0,6 5,6 7,7 6,4 3 2 6 3 S 1029,7 13 0,0
23.03.2019 01:00:00 3,3 1,5 1,2 6,2 8,0 6,4 3 2 5 3 SSE 1029,7 14 0,0
23.03.2019 00:00:00 4,4 2,3 1,7 6,7 8,4 6,4 3 1 5 3 S 1029,4 19 0,0
22.03.2019 23:00:00 4,9 2,5 1,7 7,3 8,7 6,4 2 1 4 2 S 1029,6 25 0,0
22.03.2019 22:00:00 6,1 2,6 3,2 8,0 9,1 6,4 4 2 5 3 S 1029,6 29 0,0
22.03.2019 21:00:00 7,9 3,3 4,0 8,8 9,4 6,3 3 2 4 2 SW 1029,2 34 0,0
22.03.2019 20:00:00 9,4 4,0 5,9 9,7 9,6 6,3 3 2 8 4 SSE 1028,8 22 0,0
22.03.2019 19:00:00 12,6 3,8 8,7 10,9 9,8 6,3 5 3 13 7 S 1028,2 54 0,0
22.03.2019 18:00:00 16,5 2,9 13,1 12,1 9,7 6,3 8 4 15 8 SSE 1027,7 56 0,0
22.03.2019 17:00:00 17,4 2,4 16,2 13,0 9,3 6,3 12 6 22 12 ESE 1027,7 42 0,0
22.03.2019 16:00:00 17,7 2,1 19,0 13,4 8,8 6,3 13 7 27 15 SE 1028,0 45 0,0
22.03.2019 15:00:00 16,9 1,7 19,2 13,1 8,2 6,3 14 8 24 13 ESE 1028,6 23 0,0
22.03.2019 14:00:00 16,4 1,4 18,5 12,7 7,5 6,3 13 7 26 14 ESE 1029,2 32 0,0
22.03.2019 13:00:00 16,0 1,3 17,8 12,2 6,7 6,3 12 7 24 13 E 1030,0 33 0,0
22.03.2019 12:00:00 14,3 0,2 17,6 10,8 5,9 6,3 13 7 24 13 E 1030,8 29 0,0
22.03.2019 11:00:00 13,0 -1,2 15,4 9,2 5,3 6,3 10 5 21 11 E 1031,5 26 0,0
22.03.2019 10:00:00 10,5 -0,9 13,3 7,0 4,8 6,3 5 3 9 5 ENE 1032,0 28 0,0
22.03.2019 09:00:00 5,6 -0,3 8,8 4,6 4,7 6,3 5 3 7 4 NNE 1033,0 25 0,0
22.03.2019 08:00:00 1,9 -1,5 3,6 2,6 4,8 6,3 0 0 5 3 N 1033,7 16 0,0
22.03.2019 07:00:00 -1,4 -3,1 -2,6 2,5 5,0 6,3 4 2 6 4 SW 1034,0 18 0,0
22.03.2019 06:00:00 -1,8 -3,2 -3,0 2,7 5,3 6,3 4 2 4 2 SSE 1034,1 18 0,0
22.03.2019 05:00:00 -1,7 -3,3 -3,4 3,0 5,5 6,2 4 2 5 3 W 1033,7 19 0,0
22.03.2019 04:00:00 -1,0 -2,9 -3,3 3,3 5,8 6,2 2 1 5 3 SW 1033,5 23 0,0
22.03.2019 03:00:00 -0,7 -2,5 -2,7 3,7 6,2 6,2 3 1 4 2 SSW 1033,8 23 0,0
22.03.2019 02:00:00 -0,2 -2,7 -2,2 4,1 6,5 6,2 0 0 6 3 N 1034,1 25 0,0
22.03.2019 01:00:00 0,5 -2,2 -1,6 4,6 6,8 6,2 0 0 5 3 N 1034,2 29 0,0
22.03.2019 00:00:00 1,3 -2,1 -1,5 5,1 7,2 6,2 3 1 4 2 ESE 1034,1 30 0,0
21.03.2019 23:00:00 2,9 -1,4 -0,1 5,7 7,5 6,2 2 1 3 2 SSW 1033,9 37 0,0
21.03.2019 22:00:00 3,5 -1,9 0,8 6,4 7,9 6,2 2 1 4 2 SE 1033,9 43 0,0
21.03.2019 21:00:00 5,3 -2,0 1,2 7,2 8,2 6,2 3 2 4 2 SSW 1033,3 42 0,0
21.03.2019 20:00:00 7,4 -1,5 3,9 8,1 8,5 6,2 0 0 4 2 N 1032,9 54 0,0
21.03.2019 19:00:00 9,4 -1,5 5,5 9,2 8,6 6,2 2 1 12 6 SE 1032,2 58 0,0
21.03.2019 18:00:00 13,5 -3,7 9,2 10,4 8,6 6,3 6 3 21 11 ENE 1031,2 55 0,0
21.03.2019 17:00:00 14,5 -4,7 13,5 11,3 8,3 6,3 14 8 28 15 E 1031,3 44 0,0
21.03.2019 16:00:00 14,6 -5,4 15,9 11,8 7,7 6,3 13 7 29 16 E 1031,3 53 0,0
21.03.2019 15:00:00 14,0 -5,7 16,2 11,7 7,1 6,3 18 10 30 16 E 1032,2 47 0,0
21.03.2019 14:00:00 13,5 -6,0 16,7 11,3 6,3 6,3 16 8 29 16 E 1032,8 37 0,0
21.03.2019 13:00:00 12,7 -4,8 16,3 10,3 5,5 6,3 14 7 27 15 E 1033,6 27 0,0
21.03.2019 12:00:00 11,5 -3,2 14,9 8,8 4,8 6,3 14 7 29 15 ESE 1034,5 26 0,0
21.03.2019 11:00:00 10,1 -2,8 13,2 7,2 4,2 6,3 14 8 22 12 E 1035,3 27 0,0
21.03.2019 10:00:00 7,4 -2,5 10,0 5,2 3,8 6,2 7 4 13 7 E 1035,9 26 0,0
21.03.2019 09:00:00 4,5 -2,7 5,9 2,3 3,7 6,2 4 2 8 4 SE 1036,4 23 0,0
21.03.2019 08:00:00 0,0 -3,0 1,7 1,4 3,9 6,2 0 0 4 2 N 1037,3 19 0,0
21.03.2019 07:00:00 -3,9 -5,3 -4,8 1,5 4,1 6,2 3 1 6 3 N 1037,8 18 0,0
21.03.2019 06:00:00 -3,7 -4,9 -5,8 1,7 4,3 6,2 5 3 7 4 NNE 1037,6 22 0,0
21.03.2019 05:00:00 -2,3 -4,1 -4,3 2,0 4,6 6,2 4 2 6 4 SSW 1036,9 28 0,0
21.03.2019 04:00:00 -2,5 -4,0 -4,3 2,3 4,8 6,2 3 2 4 2 S 1037,3 23 0,0
21.03.2019 03:00:00 -2,4 -4,2 -4,8 2,5 5,1 6,2 0 0 6 3 N 1037,5 23 0,0
21.03.2019 02:00:00 -1,8 -3,7 -3,6 2,9 5,4 6,2 0 0 6 4 N 1037,5 22 0,0
21.03.2019 01:00:00 -1,5 -3,9 -3,2 3,2 5,7 6,2 4 2 6 3 SSE 1037,7 25 0,0
21.03.2019 00:00:00 -1,7 -4,2 -3,7 3,6 6,1 6,2 2 1 4 2 ESE 1037,8 34 0,0
20.03.2019 23:00:00 -0,5 -3,4 -3,0 4,1 6,5 6,2 3 2 6 3 S 1037,4 32 0,0
20.03.2019 22:00:00 0,5 -3,5 -1,4 4,8 6,8 6,2 3 2 5 3 S 1037,1 36 0,0
20.03.2019 21:00:00 2,2 -2,5 -0,7 5,6 7,2 6,3 3 2 5 3 SSE 1036,6 40 0,0
20.03.2019 20:00:00 3,2 -2,5 0,4 6,5 7,5 6,3 3 2 7 4 WSW 1036,1 42 0,0
20.03.2019 19:00:00 5,7 -2,0 2,7 7,6 7,7 6,3 2 1 7 4 S 1035,0 40 0,0
20.03.2019 18:00:00 9,1 -4,9 5,8 8,8 7,7 6,3 4 2 9 5 NW 1034,2 50 0,0
20.03.2019 17:00:00 9,7 -5,1 8,9 9,8 7,5 6,3 6 3 14 8 E 1033,9 40 0,0
20.03.2019 16:00:00 10,0 -4,8 12,0 10,4 7,0 6,3 5 3 16 9 SSE 1033,9 35 0,0
20.03.2019 15:00:00 9,7 -4,7 13,5 10,5 6,3 6,3 6 4 14 8 NW 1034,1 28 0,0
20.03.2019 14:00:00 9,3 -5,9 12,7 10,1 5,6 6,3 9 5 17 9 SW 1034,5 32 0,0
20.03.2019 13:00:00 8,4 -5,8 11,9 9,4 4,8 6,3 6 3 19 10 SW 1035,2 23 0,0
20.03.2019 12:00:00 7,8 -5,3 11,3 7,9 4,1 6,3 5 3 16 8 SE 1035,8 28 0,0
20.03.2019 11:00:00 6,7 -6,1 8,3 6,7 3,5 6,3 4 2 7 4 W 1035,8 37 0,0
20.03.2019 10:00:00 5,3 -4,3 8,2 3,7 3,2 6,3 2 1 4 2 S 1035,8 36 0,0
20.03.2019 09:00:00 2,5 -3,0 4,9 1,0 3,2 6,3 1 1 9 5 W 1036,1 28 0,0
20.03.2019 08:00:00 -1,0 -3,8 -1,5 1,0 3,4 6,3 5 3 7 4 S 1036,2 27 0,0
20.03.2019 07:00:00 -4,0 -5,1 -4,6 1,0 3,5 6,3 2 1 4 2 SW 1036,4 21 0,0
20.03.2019 06:00:00 -4,2 -5,3 -6,2 1,2 3,7 6,3 2 1 6 4 SSE 1035,7 18 0,0
20.03.2019 05:00:00 -3,2 -4,2 -4,0 1,3 3,9 6,3 3 2 4 2 SSE 1035,3 17 0,0
20.03.2019 04:00:00 -4,5 -5,8 -6,7 1,5 4,1 6,3 2 1 5 3 SE 1035,2 20 0,0
20.03.2019 03:00:00 -3,5 -4,7 -6,1 1,8 4,3 6,3 4 2 5 3 SW 1034,9 23 0,0
20.03.2019 02:00:00 -2,9 -4,2 -4,6 2,0 4,6 6,3 3 2 6 4 S 1034,8 25 0,0
20.03.2019 01:00:00 -3,1 -4,4 -5,1 2,3 4,9 6,3 0 0 5 3 N 1034,8 24 0,0
20.03.2019 00:00:00 -2,7 -4,5 -4,5 2,7 5,2 6,3 0 0 6 3 N 1034,2 27 0,0
19.03.2019 23:00:00 -1,3 -3,6 -3,1 3,1 5,5 6,3 4 2 6 3 S 1033,8 30 0,0
19.03.2019 22:00:00 -0,3 -3,2 -2,6 3,6 5,8 6,4 4 2 5 3 SSW 1033,0 31 0,0
19.03.2019 21:00:00 1,4 -2,6 -0,9 4,4 6,1 6,4 4 2 5 3 SW 1032,4 41 0,0
19.03.2019 20:00:00 3,1 -2,6 1,7 5,0 6,4 6,4 4 2 9 5 SW 1031,5 41 0,0
19.03.2019 19:00:00 3,5 -3,1 -0,1 5,8 6,5 6,4 5 3 11 6 WNW 1030,7 41 0,0
19.03.2019 18:00:00 5,7 -3,8 4,1 6,9 6,6 6,4 6 4 18 10 NNW 1029,5 45 0,0
19.03.2019 17:00:00 6,5 -3,9 6,5 7,6 6,4 6,4 11 6 23 13 N 1028,8 45 0,0
19.03.2019 16:00:00 6,5 -5,1 6,9 7,8 6,1 6,4 14 8 22 12 NNW 1028,6 53 0,0
19.03.2019 15:00:00 7,1 -5,1 10,3 7,9 5,8 6,4 13 7 25 14 N 1028,1 32 0,0
19.03.2019 14:00:00 6,0 -4,1 7,2 7,8 5,4 6,4 16 9 26 14 N 1028,5 41 0,0
19.03.2019 13:00:00 6,2 -2,9 8,6 7,4 5,1 6,4 14 7 21 11 NNW 1028,4 29 0,0
19.03.2019 12:00:00 5,3 -2,8 6,3 7,1 4,6 6,4 11 6 22 12 N 1028,6 31 0,0
19.03.2019 11:00:00 5,0 -0,8 7,7 6,9 4,0 6,4 8 4 14 8 NNE 1028,3 25 0,0

tt = Température de l'air
td = dewpoint
tt 5cm = Température de l'air 5cm
tt -5cm = Température de l'air -5cm
tt -20cm = Température de l'air -20cm
tt -100cm = Température de l'air -100cm
ff = Vitesse du vent
fx = gusts
dd = Direction du vent
ppp = reduced air pressure
vv = visibility
rr = Quantités de précipitations

stations d'obs. à proximité